SCP
0 0 0 0 0 0 0 0 0 0 0 0 0 0 0 0 0 0 0 0 0 0 0 0 0 0 0 0 0 0 0 0 0 0 0 0 0 0 0 0 0 0 0 0 0 0 0 0 0
0 0 0 0 0 0 0 0 0 0 0 0 0 0 0 0 0 0 0 0 0 0 0 0 0 0 0 0 0 0 0 0 0 0 0 0 0 0 0 0 0 0 0 0 0 0 0 0 0
0 0 0 0 0 0 0 0 0 0 0 0 0 0 0 0 0 0 0 0 0 0 0 0 0 0 0 0 0 0 0 0 0 0 0 0 0 0 0 0 0 0 0 0 0 0 0 0 0
0 0 0 0 0 0 0 0 0 0 0 0 0 0 0 0 0 0 0 0 0 0 0 0 0 0 0 0 0 0 0 0 0 0 0 0 0 0 0 0 0 0 0 0 0 0 0 0 0
0 0 0 0 0 0 0 0 0 0 0 0 0 0 0 0 0 0 0 0 0 0 0 0 0 0 0 0 0 0 0 0 0 0 0 0 0 0 0 0 0 0 0 0 0 0 0 0 0
0 0 0 0 0 0 0 0 0 0 0 0 0 0 0 0 0 0 0 0 0 0 0 0 0 0 0 0 0 0 0 0 0 0 0 0 0 0 0 0 0 0 0 0 0 0 0 0 0
0 0 0 0 0 0 0 0 0 0 0 0 0 0 0 0 0 0 0 0 0 0 0 0 0 0 0 0 0 0 0 0 0 0 0 0 0 0 0 0 0 0 0 0 0 0 0 0 0
0 0 0 0 0 0 0 0 0 0 0 0 0 0 0 0 0 1 1 1 1 1 1 0 0 0 0 0 0 0 0 0 0 0 0 0 0 0 0 0 0 0 0 0 0 0 0 0 0
0 0 0 0 0 0 0 0 0 0 0 0 0 0 0 0 0 1 1 1 1 1 1 1 0 0 0 0 0 0 0 0 0 0 0 0 0 0 0 0 0 0 0 0 0 0 0 0 0
0 0 0 0 0 0 0 0 0 0 0 0 0 0 0 0 0 1 1 1 1 1 1 1 0 0 0 0 0 0 0 0 0 0 0 0 0 0 0 0 0 0 0 0 0 0 0 0 0
0 0 0 0 0 0 0 0 0 0 0 0 0 0 0 0 0 0 0 1 1 1 1 1 0 0 0 0 0 0 0 0 0 0 0 0 0 0 0 0 0 0 0 0 0 0 0 0 0
0 0 0 0 0 0 0 0 0 0 0 0 0 0 0 0 0 0 0 0 0 1 1 1 1 1 0 0 0 0 0 0 0 0 0 0 0 0 0 0 0 0 0 0 0 0 0 0 0
0 0 0 0 0 0 0 0 0 0 0 0 0 0 0 0 0 0 0 0 0 0 1 1 1 1 1 1 1 0 0 0 0 0 0 0 0 0 0 0 0 0 0 0 0 0 0 0 0
0 0 0 0 0 0 0 0 0 0 0 0 0 0 0 0 0 0 0 0 0 0 1 1 1 1 1 1 1 1 1 0 0 0 0 0 0 0 0 0 0 0 0 0 0 0 0 0 0
0 0 0 0 0 0 0 0 0 0 0 0 0 0 0 0 0 0 0 0 0 0 0 1 1 1 1 1 1 1 1 1 0 0 0 0 0 0 0 0 0 0 0 0 0 0 0 0 0
0 0 0 0 0 0 0 0 -0 -0 0 0 0 0 0 0 0 0 0 0 0 0 0 0 1 1 1 1 1 1 1 1 1 0 0 0 0 0 0 0 0 0 0 0 0 0 0 0 0
0 0 0 0 0 0 0 0 0 0 0 0 0 0 0 0 0 0 0 0 0 0 0 0 1 1 1 1 1 1 1 1 1 0 0 0 0 0 0 0 0 0 0 0 0 0 0 0 0
0 0 0 0 0 0 0 0 0 0 0 0 0 0 0 0 0 0 0 0 0 0 0 0 0 1 1 1 1 1 1 1 1 0 0 0 0 0 0 0 0 0 0 0 0 0 0 0 0
0 0 0 0 0 0 0 0 0 0 0 0 0 0 0 0 0 0 0 0 0 0 0 0 0 1 1 1 1 1 0 0 0 0 0 0 0 0 0 0 0 0 0 0 0 0 0 0 0
0 0 0 0 0 0 0 -0 0 0 0 0 0 0 0 0 0 0 0 0 0 0 0 0 0 1 1 1 1 0 0 0 0 0 0 0 0 0 0 0 0 0 0 0 0 0 0 0 0
0 0 0 0 0 0 0 0 0 0 0 0 0 0 0 0 0 0 0 0 0 0 0 0 0 1 1 1 0 0 0 0 0 0 0 0 0 0 0 0 0 0 0 0 0 0 0 0 0
0 0 0 0 0 0 0 0 0 0 0 0 0 0 0 0 0 0 0 0 0 0 0 0 0 1 1 0 0 0 0 0 0 0 0 0 0 0 0 0 0 0 0 0 0 0 0 0 0
0 0 0 0 0 0 0 0 0 0 0 0 0 0 0 0 0 0 0 0 0 0 0 0 0 0 0 0 0 0 0 0 0 0 0 0 0 0 0 0 0 0 0 0 0 0 0 0 0
0 0 0 0 0 0 0 0 0 0 0 0 0 0 0 0 0 0 0 0 0 0 0 0 0 0 0 0 0 0 0 0 0 0 0 0 0 0 0 0 0 0 0 0 0 0 0 0 0
0 0 0 0 0 0 0 0 0 0 0 0 0 0 0 0 0 0 0 0 0 0 0 0 0 0 0 0 0 0 0 0 0 0 0 0 0 0 0 0 0 0 0 0 0 0 0 0 0
0 0 0 0 0 0 0 0 0 0 0 0 0 0 0 0 0 0 0 0 0 0 0 0 0 0 0 0 0 0 0 0 0 0 0 0 0 0 0 0 0 0 0 0 0 0 0 0 0
0 0 0 0 0 0 0 0 0 0 0 0 0 0 0 0 0 0 0 0 0 0 0 0 0 0 0 0 0 0 0 0 0 0 0 0 0 0 0 0 0 0 0 0 0 0 0 0 0
0 0 0 0 0 0 0 0 0 0 0 0 0 0 0 0 0 0 0 0 0 0 0 0 0 0 0 0 0 0 0 0 0 0 0 0 0 0 0 0 0 0 0 0 0 0 0 0 0
0 0 0 0 0 0 0 0 0 0 0 0 0 0 0 0 0 0 0 0 0 0 0 0 0 0 0 0 0 0 0 0 0 0 0 0 0 0 0 0 0 0 0 0 0 0 0 0 0
0 0 0 0 0 0 0 0 0 0 0 0 0 0 0 0 0 0 0 0 0 0 0 0 0 0 0 0 0 0 0 0 0 0 0 0 0 0 0 0 0 0 0 0 0 0 0 0 0
Wind_Speed
8 6 4 4 5 7 8 5 3 3 3 2 4 6 5 3 2 2 5 9 10 15 15 17 15 15 14 13 12 11 10 10 9 8 9 9 8 7 6 6 5 6 7 8 9 9 9 10 9
6 4 4 4 7 9 8 6 6 2 3 5 4 5 6 3 2 4 7 10 11 15 14 14 15 15 14 13 12 11 10 10 9 9 9 9 8 8 7 6 6 7 7 8 8 9 9 9 8
3 4 4 5 9 11 5 5 6 1 4 3 2 3 3 1 3 4 7 12 12 14 13 14 15 15 14 13 12 11 10 10 10 9 9 9 8 8 7 7 7 6 6 7 7 7 8 8 7
4 4 5 10 16 14 7 3 4 2 1 2 4 3 2 2 2 5 10 12 13 14 13 15 14 15 14 13 12 11 10 10 10 9 9 9 8 8 8 7 7 6 5 6 6 6 6 6 5
5 6 10 14 19 12 9 5 3 5 3 3 5 4 1 4 3 6 11 12 12 13 12 16 15 15 14 13 12 11 11 10 10 10 9 8 7 7 7 6 6 5 4 4 5 5 4 4 4
7 7 12 16 19 14 11 8 7 8 6 4 4 5 2 5 5 7 11 11 12 13 12 14 15 14 14 13 12 11 11 10 10 9 8 7 6 6 6 5 4 3 3 3 4 4 4 3 4
9 10 16 18 17 16 12 8 11 10 10 6 3 5 3 5 5 8 10 9 11 12 12 12 14 13 13 12 11 11 10 10 9 8 7 6 6 5 6 4 3 2 2 3 3 3 3 4 4
7 7 14 16 18 16 9 7 8 10 10 3 4 7 2 4 7 8 8 8 9 10 11 12 12 12 12 12 11 10 9 8 8 7 7 7 7 6 6 3 3 2 2 3 4 4 5 5 5
6 10 15 16 13 11 8 10 8 5 8 6 6 4 4 3 8 10 9 8 9 9 10 11 11 11 10 10 11 11 9 8 8 8 8 6 6 5 5 5 4 3 3 4 4 5 5 3 5
9 12 15 9 9 7 7 8 7 7 10 10 8 3 3 4 8 11 12 12 12 12 12 11 12 11 11 8 9 8 8 9 8 7 8 6 4 3 2 7 5 4 4 5 5 4 2 2 1
9 11 9 8 8 7 8 8 6 9 12 11 7 2 2 2 7 10 11 11 12 12 12 12 12 11 11 8 7 6 5 6 7 7 7 5 5 4 3 3 5 4 3 3 3 2 2 3 3
7 9 7 7 5 8 11 10 12 14 14 7 5 6 7 6 7 10 11 10 10 11 13 13 13 12 12 10 8 7 6 6 6 7 8 6 4 4 3 2 2 2 2 2 2 2 3 3 3
12 7 8 8 8 10 12 16 16 18 17 15 14 14 14 13 11 9 10 10 10 11 12 13 14 13 12 11 8 8 8 7 8 7 7 7 5 5 4 3 3 2 2 2 2 2 3 3 3
6 7 7 8 11 11 16 19 19 19 17 18 19 19 18 17 15 12 11 11 12 12 12 13 14 14 13 11 10 9 8 8 8 7 8 8 6 5 5 4 3 3 3 3 2 3 3 2 3
4 7 10 11 12 9 11 18 22 22 20 21 21 21 20 20 18 16 14 13 12 12 12 13 14 15 15 14 12 9 8 8 8 7 9 9 7 6 5 4 4 4 4 4 3 4 3 3 2
4 6 7 5 6 7 10 17 13 11 15 19 20 20 20 20 20 19 17 15 13 11 11 12 11 14 15 13 12 8 8 9 8 7 7 9 8 8 6 5 5 5 4 3 3 2 3 3 3
7 7 8 5 6 6 11 14 9 6 10 14 16 16 17 17 19 18 17 16 14 13 12 12 13 14 14 13 10 9 8 8 7 7 7 8 9 9 7 6 5 5 4 4 3 3 3 3 4
6 7 6 7 3 8 15 18 16 14 16 17 16 16 16 17 18 17 16 14 13 12 12 12 13 13 12 10 8 7 7 6 6 6 7 9 8 9 9 7 7 5 4 4 4 4 4 4 4
3 7 9 9 8 12 18 22 21 19 20 21 21 20 19 20 19 17 16 14 13 12 12 12 13 14 12 10 10 8 7 6 6 6 9 9 10 9 9 7 7 5 4 4 4 3 4 5 5
11 12 13 12 10 11 19 27 24 23 25 24 23 23 22 22 21 20 18 16 15 14 13 13 13 15 15 12 10 7 8 6 7 7 8 9 10 9 8 8 7 6 5 5 5 4 3 4 5
12 14 13 12 13 14 17 23 19 16 18 20 22 23 23 23 23 22 21 19 16 15 14 12 14 15 15 14 10 10 8 7 6 7 7 8 9 9 9 9 7 6 5 5 5 4 4 3 3
9 8 11 11 9 8 6 15 15 10 12 15 18 18 20 21 21 21 21 20 18 17 14 13 14 15 16 16 15 17 12 10 9 8 7 9 9 9 9 9 8 7 5 6 5 4 3 3 2
6 3 6 8 10 12 10 13 19 9 14 14 16 17 18 18 19 20 20 19 18 16 13 13 14 15 17 16 17 16 13 11 11 10 12 10 9 9 8 9 8 7 6 6 5 4 3 2 2
5 4 7 8 7 11 12 14 19 10 11 11 11 13 14 15 16 17 17 17 16 14 13 14 16 16 16 16 17 16 18 18 17 15 13 9 7 7 8 8 8 7 6 5 5 4 3 2 1
8 5 4 5 7 11 5 12 18 12 10 12 13 13 13 13 14 15 16 15 15 15 16 16 17 17 17 17 16 16 18 19 19 17 14 12 9 8 9 8 7 6 6 5 4 3 2 1 1
12 9 7 6 6 7 7 15 14 12 11 13 14 15 15 16 15 15 15 14 15 17 18 18 19 18 18 17 16 16 17 13 12 13 12 10 9 8 9 8 8 7 6 5 3 2 1 1 3
9 10 7 6 8 11 13 14 15 13 13 13 13 14 15 16 16 15 14 14 15 17 18 19 20 19 18 18 17 17 16 14 14 14 12 9 9 9 10 9 8 7 6 4 2 1 1 2 3
8 5 5 6 7 11 14 16 12 9 9 10 11 13 15 15 15 13 12 13 14 15 16 18 19 19 19 18 17 14 16 15 15 13 13 12 12 10 10 9 8 6 5 3 2 1 1 3 4
11 8 8 7 8 8 12 12 7 9 9 11 13 14 14 15 14 10 9 10 12 14 15 17 18 19 18 18 17 17 16 15 14 13 13 12 11 11 9 8 7 6 4 2 1 2 3 5 5
13 14 13 9 10 10 12 17 8 10 10 11 14 14 14 14 11 7 7 10 13 15 16 17 17 18 18 18 18 17 17 16 14 14 13 12 11 10 8 7 6 5 2 1 2 3 4 5 6
Wind_Direction
303 305 283 257 249 238 244 224 220 209 216 292 301 275 268 258 269 42 91 146 138 151 151 152 150 146 144 139 133 129 128 125 123 122 122 119 110 101 91 83 75 62 49 45 48 51 66 74 84
306 291 250 246 248 239 229 213 202 195 323 319 268 240 241 233 20 81 132 147 150 153 153 155 147 149 147 142 138 136 135 130 126 125 123 118 110 101 91 82 75 68 58 52 51 53 60 65 68
263 269 248 233 235 239 234 195 181 112 317 296 286 244 273 41 98 120 131 151 156 155 156 143 149 152 150 146 143 141 140 136 130 126 122 119 112 104 90 81 77 73 64 57 56 57 54 54 51
225 204 223 235 234 233 243 167 153 273 307 308 313 268 196 71 75 104 136 156 159 158 157 147 155 155 154 151 148 145 145 143 136 132 128 125 117 107 97 91 87 82 71 63 58 54 51 45 37
220 217 222 231 237 230 231 235 237 268 295 314 310 290 197 120 109 130 149 161 162 160 158 153 159 160 159 158 155 152 151 149 144 139 138 135 126 115 106 103 98 92 77 63 54 50 48 39 23
201 212 225 229 233 227 232 237 248 259 270 288 282 268 177 121 148 146 154 163 162 160 161 156 162 163 163 164 162 160 158 156 152 150 146 140 129 119 114 112 107 94 71 53 40 33 27 17 8
213 213 231 236 239 232 231 231 245 256 259 260 263 253 176 147 137 145 154 158 160 163 166 165 170 170 167 167 166 166 164 161 159 158 147 125 110 111 109 106 103 77 40 28 17 13 17 20 17
236 224 232 234 239 239 228 221 241 251 259 261 241 244 199 114 135 143 148 155 161 170 174 174 176 177 175 173 168 166 164 162 159 150 126 115 116 116 111 131 88 36 12 13 18 30 41 45 40
220 225 228 226 236 240 215 224 228 242 247 230 226 270 23 103 151 154 157 164 171 180 184 183 183 182 181 178 167 171 167 162 162 155 136 162 177 162 151 79 68 50 42 48 49 52 54 57 89
211 228 232 237 239 235 208 223 227 225 226 222 208 179 70 155 182 185 185 183 184 187 190 191 192 187 185 178 176 182 178 173 188 174 171 184 174 148 126 111 91 83 89 96 77 72 90 297 50
214 234 240 229 232 242 233 232 236 241 233 226 218 198 37 190 210 217 212 202 195 191 189 195 196 193 190 184 186 182 181 177 184 182 178 177 171 165 176 165 153 151 155 131 113 132 48 31 30
221 233 239 238 233 245 247 250 246 243 247 246 271 294 292 272 242 232 229 221 208 199 195 195 196 195 196 192 189 188 185 182 179 181 183 180 176 178 167 170 145 149 132 101 77 50 60 45 34
225 234 236 246 254 257 257 252 256 256 255 262 269 274 272 269 264 248 240 234 223 213 204 198 197 197 196 196 194 195 191 187 182 179 185 184 180 176 162 156 141 125 107 112 92 71 61 39 30
232 241 250 256 255 256 257 258 251 251 253 257 257 259 260 259 259 257 242 234 227 220 211 200 199 199 197 195 195 195 192 189 185 180 182 183 180 170 160 150 130 115 104 89 86 75 66 44 21
240 256 257 247 247 250 259 258 245 249 251 251 252 252 254 256 256 254 248 242 236 226 216 205 201 199 199 199 196 192 189 185 184 179 179 180 175 164 152 137 129 117 111 107 93 82 55 40 13
224 238 248 223 234 232 235 258 255 247 248 249 250 251 251 251 252 251 249 245 241 233 220 207 199 202 200 198 193 187 185 182 181 176 174 175 165 153 141 130 122 120 114 102 84 60 50 31 356
218 235 245 252 231 243 237 264 268 260 255 255 253 252 252 251 250 248 247 245 242 233 222 210 202 202 198 192 186 183 179 178 175 167 163 159 152 144 132 120 119 121 107 94 83 59 33 20 359
219 225 242 255 252 264 259 261 265 260 265 265 262 258 255 252 251 250 249 247 244 238 228 215 201 198 187 180 175 168 165 162 156 149 149 144 138 133 123 117 118 114 109 103 94 82 54 22 349
264 252 260 266 279 286 273 272 270 268 263 260 258 256 253 252 251 250 248 246 240 230 221 212 199 187 175 173 172 165 159 142 128 125 131 130 128 127 121 119 116 111 105 102 95 82 59 33 356
246 259 267 277 279 281 283 280 273 262 256 254 254 252 250 250 248 245 241 237 232 226 215 207 196 183 178 175 168 158 135 119 110 110 115 120 124 124 121 122 117 114 111 102 85 73 62 47 19
239 249 261 274 298 278 287 285 267 251 245 248 248 248 248 246 245 242 236 230 225 222 213 201 192 182 177 166 146 131 117 114 113 118 113 117 120 118 119 119 116 115 111 101 86 70 59 52 46
248 247 256 269 276 282 290 293 287 273 250 243 245 244 243 242 241 241 238 231 222 216 208 198 186 178 171 161 160 160 159 152 145 136 124 121 117 116 119 117 116 115 112 110 97 79 67 46 37
239 238 245 257 269 278 249 261 279 262 256 250 247 246 245 245 243 241 238 233 226 212 199 188 178 174 168 168 166 165 153 136 129 128 127 121 115 116 120 119 119 116 113 109 104 94 71 54 26
207 219 252 250 257 260 243 234 275 271 264 266 260 256 253 251 249 247 242 233 225 207 190 179 173 170 167 166 166 161 148 143 140 140 136 130 125 123 125 126 123 120 117 115 109 100 89 59 46
195 209 241 228 226 249 244 238 257 276 274 272 273 274 272 268 261 254 244 229 215 199 186 177 171 166 165 163 162 153 151 149 147 145 144 141 137 138 140 135 129 123 121 118 113 107 108 137 267
195 206 230 259 260 274 243 246 260 273 274 269 270 277 281 277 270 260 247 228 210 195 185 177 170 164 162 159 152 146 145 142 140 142 141 139 137 137 139 133 129 128 126 124 124 138 169 227 260
184 213 242 276 282 274 257 258 273 259 259 264 274 281 281 280 274 263 248 226 206 192 184 176 166 160 157 151 144 143 142 139 137 136 133 128 130 134 137 135 133 129 126 125 141 171 235 261 279
224 195 186 214 260 268 268 264 261 275 273 280 286 289 291 291 282 264 242 217 198 188 179 169 161 154 149 144 140 139 138 136 135 133 133 133 134 136 138 138 134 132 132 143 180 229 265 279 286
193 202 211 230 248 271 285 276 287 283 288 298 298 297 300 297 284 260 228 200 182 171 165 158 151 145 143 140 137 135 134 134 132 130 131 133 135 138 138 137 136 135 139 158 220 268 276 285 292
214 216 211 230 240 242 271 278 286 281 294 300 297 298 298 294 279 246 196 170 163 159 155 150 145 143 139 136 134 132 131 132 130 130 131 133 134 134 134 134 134 132 142 202 271 284 286 292 297